FW0880 Weather Reports


time (UTC)temp
C
wind
direction
speed
KPH
gust
KPH
rain 1hr
cm
rain 24hr
cm
rain mn
cm
humidity
%
barometer
mb
20260902022007 26 350 0.0 0.0 0.43 4.37 1.68 91 1011.9
20260902021512 26 350 0.0 0.0 0.43 4.32 1.65 91 1011.7
20260902021012 26 350 0.0 0.0 0.36 4.27 1.57 91 1011.6
20260902020511 26 350 0.0 3.2 0.33 4.22 1.55 91 1011.6
20260902020021 26 350 0.0 3.2 0.33 4.19 1.52 91 1011.4
20260902015519 26 349 0.0 4.8 0.28 4.14 1.42 91 1011.3
20260902015024 26 348 0.0 6.4 0.25 4.09 1.42 91 1011.2
20260902014534 26 349 1.6 6.4 0.23 4.09 1.40 91 1011.2
20260902014028 26 19 0.0 8.0 0.23 4.04 1.37 91 1011.2
20260902013527 26 336 1.6 8.0 0.23 4.01 1.35 91 1011.2
20260902013011 26 355 3.2 4.8 0.33 3.99 1.30 91 1011.0
20260902012510 26 22 1.6 12.9 0.51 3.96 1.27 90 1010.9
20260902012015 26 35 3.2 12.9 0.66 3.91 1.24 91 1010.8
20260902011531 26 38 0.0 8.0 0.71 3.91 1.22 91 1010.8
20260902011018 26 40 1.6 8.0 0.71 3.91 1.22 90 1010.9
20260902010516 26 49 1.6 9.7 0.71 3.89 1.19 90 1010.9
20260902010024 26 52 3.2 8.0 0.69 3.86 1.17 90 1010.8
20260902005518 26 64 3.2 8.0 0.66 3.84 1.17 90 1010.8
20260902005025 26 53 1.6 6.4 0.69 3.84 1.17 90 1010.6
20260902004532 26 59 3.2 6.4 0.69 3.84 1.17 90 1010.6
20260902004007 26 40 1.6 6.4 0.66 3.81 1.14 90 1010.7
20260902003508 26 61 0.0 4.8 0.61 3.78 1.09 90 1010.8
20260902003012 26 68 1.6 9.7 0.46 3.63 0.94 90 1010.7
20260902002512 26 82 3.2 9.7 0.25 3.43 0.71 90 1010.7
20260902002021 26 148 0.0 3.2 0.10 3.25 0.56 90 1010.6
20260902001523 26 182 0.0 3.2 0.05 3.17 0.51 90 1010.5
20260902001023 26 184 0.0 3.2 0.08 3.17 0.51 90 1010.4
20260902000523 26 184 0.0 8.0 0.20 3.17 0.51 90 1010.5
20260902000008 26 188 1.6 9.7 0.33 3.17 0.51 89 1010.4
20260901235508 26 205 3.2 11.3 0.36 3.17 0.51 89 1010.4
20260901235016 26 227 6.4 20.9 0.33 3.15 0.48 89 1010.3
20260901234543 26 180 4.8 20.9 0.33 3.15 0.48 89 1010.2
20260901234017 26 161 8.0 14.5 0.33 3.15 0.48 89 1010.0
20260901233517 26 169 8.0 16.1 0.33 3.15 0.48 88 1010.0
20260901233017 26 213 9.7 17.7 0.33 3.15 0.48 88 1009.9
20260901232517 27 157 9.7 16.1 0.33 3.15 0.48 87 1009.9
20260901232008 27 220 9.7 16.1 0.33 3.15 0.46 87 1009.7
20260901231510 27 214 9.7 19.3 0.33 3.12 0.43 86 1009.6
20260901231010 27 240 9.7 16.1 0.36 3.07 0.41 86 1009.5
20260901230512 27 212 9.7 29.0 0.28 2.97 0.28 85 1009.6
20260901230016 27 188 11.3 29.0 0.15 2.84 0.15 84 1009.7
20260901225516 27 177 11.3 20.9 0.15 2.82 0.15 83 1009.4
20260901225021 27 211 8.0 14.5 0.15 2.82 0.15 84 1009.1
20260901224529 27 223 6.4 14.5 0.15 2.82 0.15 84 1008.9
20260901224005 27 193 8.0 14.5 0.15 2.82 0.15 83 1008.9
20260901223505 28 171 6.4 14.5 0.15 2.82 0.15 83 1008.9
20260901223011 28 171 3.2 9.7 0.15 2.82 0.15 84 1008.7
20260901222512 28 98 0.0 9.7 0.13 2.79 0.13 84 1008.5
20260901222020 28 173 1.6 19.3 0.13 2.79 0.13 83 1008.4
20260901221524 29 172 8.0 16.1 0.10 2.77 0.10 80 1008.6
20260901221020 30 123 8.0 16.1 0.03 2.69 0.03 79 1008.6
20260901220519 31 215 6.4 16.1 0.00 2.69 0.00 75 1008.5
20260901220007 31 179 4.8 14.5 0.00 2.69 0.00 75 1008.4
20260901215505 31 241 4.8 11.3 0.00 2.69 0.00 74 1008.5
20260901215009 32 187 6.4 11.3 0.00 2.69 0.00 73 1008.7
20260901214510 32 231 4.8 11.3 0.00 2.69 0.00 73 1008.7
20260901214020 32 232 1.6 11.3 0.00 2.69 0.00 74 1008.8
20260901213517 32 167 6.4 16.1 0.00 2.69 0.00 73 1008.8
20260901213016 32 187 8.0 16.1 0.00 2.69 0.00 72 1008.9
20260901212517 32 250 4.8 11.3 0.00 2.69 0.00 72 1008.8
20260901212020 32 197 4.8 12.9 0.00 2.69 0.00 72 1008.8
20260901211520 32 171 6.4 14.5 0.00 2.69 0.00 72 1008.7
20260901211008 32 200 8.0 16.1 0.00 2.69 0.00 71 1008.7
20260901210512 32 182 8.0 16.1 0.00 2.69 0.00 71 1008.6
20260901210016 32 236 8.0 16.1 0.00 2.69 0.00 70 1008.7
20260901205515 32 164 8.0 16.1 0.00 2.69 0.00 71 1008.7
20260901205018 32 189 6.4 16.1 0.00 2.69 0.00 71 1008.9
20260901204518 32 170 8.0 16.1 0.00 2.69 0.00 69 1009.0
20260901204021 33 248 8.0 14.5 0.00 2.69 0.00 67 1009.1
20260901203524 33 178 6.4 14.5 0.00 2.69 0.00 66 1009.0
20260901203027 33 175 6.4 12.9 0.00 2.69 0.00 66 1009.0
20260901202523 33 225 4.8 14.5 0.00 2.69 0.00 67 1009.0
20260901202008 33 199 6.4 16.1 0.00 2.69 0.00 65 1008.9
20260901201507 33 234 6.4 16.1 0.00 2.69 0.00 66 1009.0
20260901201017 33 181 6.4 14.5 0.00 2.69 0.00 67 1009.0
20260901200519 33 244 4.8 14.5 0.00 2.69 0.00 66 1009.0
20260901200035 33 180 4.8 14.5 0.00 2.69 0.00 64 1009.1
20260901195520 33 227 4.8 12.9 0.00 2.69 0.00 66 1009.1
20260901195027 33 175 1.6 12.9 0.00 2.69 0.00 68 1009.2
20260901194523 32 242 4.8 12.9 0.00 2.69 0.00 68 1009.3
20260901194010 32 226 4.8 9.7 0.00 2.69 0.00 69 1009.3
20260901193510 32 206 4.8 9.7 0.00 2.69 0.00 67 1009.3
20260901193015 32 251 4.8 9.7 0.00 2.69 0.00 68 1009.3
20260901192515 32 175 6.4 11.3 0.00 2.69 0.00 67 1009.4
20260901192019 32 186 6.4 11.3 0.00 2.69 0.00 65 1009.5
20260901191524 33 305 4.8 11.3 0.00 2.69 0.00 64 1009.6
20260901191012 33 262 3.2 11.3 0.00 2.69 0.00 64 1009.6
20260901190509 32 190 3.2 12.9 0.00 2.69 0.00 65 1009.7
20260901190021 33 234 6.4 12.9 0.00 2.69 0.00 63 1009.7
20260901185512 33 257 4.8 11.3 0.00 2.69 0.00 61 1009.8
20260901185016 33 236 6.4 12.9 0.00 2.69 0.00 63 1009.8
20260901184520 32 188 9.7 12.9 0.00 2.69 0.00 63 1009.8
20260901184020 32 182 8.0 12.9 0.00 2.69 0.00 64 1009.8
20260901183521 32 207 8.0 16.1 0.00 2.69 0.00 66 1009.9
20260901183031 33 234 6.4 11.3 0.00 2.69 0.00 65 1009.9
20260901182508 32 199 3.2 14.5 0.00 2.69 0.00 66 1010.0
20260901182011 32 239 8.0 14.5 0.00 2.69 0.00 67 1010.1
20260901181510 32 205 6.4 9.7 0.00 2.69 0.00 67 1010.2
20260901181017 32 184 4.8 12.9 0.00 2.69 0.00 67 1010.2
20260901180515 32 242 4.8 14.5 0.00 2.69 0.00 70 1010.2
20260901180028 32 185 6.4 14.5 0.00 2.69 0.00 70 1010.2
20260901175528 32 206 6.4 11.3 0.00 2.69 0.00 70 1010.3
20260901175008 31 244 6.4 12.9 0.00 2.69 0.00 72 1010.2
20260901174506 31 233 6.4 12.9 0.00 2.69 0.00 71 1010.2
20260901174016 32 201 4.8 11.3 0.00 2.69 0.00 71 1010.1
20260901173511 31 229 3.2 11.3 0.00 2.69 0.00 72 1010.1
20260901173020 31 230 4.8 11.3 0.00 2.69 0.00 71 1010.1
20260901172525 31 234 4.8 16.1 0.00 2.69 0.00 71 1010.1
20260901172025 31 219 9.7 16.1 0.00 2.69 0.00 70 1010.2
20260901171524 31 184 1.6 12.9 0.00 2.69 0.00 70 1010.1
20260901171010 31 189 6.4 12.9 0.00 2.69 0.00 71 1010.1
20260901170508 31 261 1.6 14.5 0.00 2.69 0.00 72 1010.0
20260901170019 31 227 4.8 14.5 0.00 2.69 0.00 72 1010.0
20260901165517 31 198 3.2 11.3 0.00 2.69 0.00 73 1010.0
20260901165021 31 232 3.2 11.3 0.00 2.69 0.00 73 1010.0
20260901164520 31 227 4.8 12.9 0.00 2.69 0.00 73 1010.0
20260901164019 31 235 4.8 11.3 0.00 2.69 0.00 72 1009.9
20260901163517 31 193 4.8 11.3 0.00 2.69 0.00 72 1009.8
20260901163020 31 253 4.8 11.3 0.00 2.69 0.00 72 1009.8
20260901162525 30 257 4.8 11.3 0.00 2.69 0.00 72 1009.8
20260901162012 30 256 4.8 12.9 0.00 2.69 0.00 73 1009.8
20260901161508 30 277 6.4 12.9 0.00 2.69 0.00 72 1009.7
20260901161015 30 267 1.6 8.0 0.00 2.69 0.00 73 1009.7
20260901160514 30 197 4.8 8.0 0.00 2.69 0.00 72 1009.6
20260901160018 30 194 3.2 8.0 0.00 2.69 0.00 73 1009.6
20260901155518 30 178 1.6 8.0 0.00 2.69 0.00 72 1009.6
20260901155025 30 140 1.6 6.4 0.00 2.69 0.00 74 1009.6
20260901154524 30 234 1.6 6.4 0.00 2.69 0.00 75 1009.7
20260901154007 29 233 3.2 8.0 0.00 2.69 0.00 76 1009.8
20260901153507 29 185 3.2 8.0 0.00 2.69 0.00 78 1009.7
20260901153023 29 232 1.6 11.3 0.00 2.69 0.00 79 1009.8
20260901152512 29 244 3.2 11.3 0.00 2.69 0.00 78 1009.8
20260901152021 29 246 4.8 8.0 0.00 2.69 0.00 77 1009.9
20260901151520 29 266 1.6 8.0 0.00 2.69 0.00 76 1010.0
20260901151024 28 210 1.6 8.0 0.00 2.69 0.00 75 1010.0
20260901150523 28 184 1.6 4.8 0.00 2.69 0.00 74 1010.0
20260901150009 28 179 1.6 6.4 0.00 2.69 0.00 76 1010.1
20260901145509 27 179 3.2 6.4 0.00 2.69 0.00 77 1010.1
20260901145017 27 176 1.6 4.8 0.00 2.69 0.00 79 1010.1
20260901144526 27 192 0.0 4.8 0.00 2.69 0.00 80 1010.1
20260901144020 27 192 0.0 4.8 0.00 2.69 0.00 81 1010.1
20260901143519 26 242 1.6 4.8 0.00 2.69 0.00 84 1010.3
20260901143025 26 216 1.6 4.8 0.00 2.69 0.00 87 1010.2
20260901142523 26 9 0.0 3.2 0.00 2.69 0.00 88 1010.3
20260901142012 26 9 1.6 3.2 0.00 2.69 0.00 88 1010.3
20260901141513 26 9 0.0 1.6 0.00 2.69 0.00 89 1010.3
20260901141016 26 9 0.0 1.6 0.00 2.69 0.00 89 1010.3
20260901140515 26 9 0.0 3.2 0.00 2.69 0.00 89 1010.3
20260901140019 26 9 0.0 3.2 0.00 2.69 0.00 89 1010.3
20260901135519 25 9 0.0 3.2 0.00 2.69 0.00 89 1010.3
20260901135008 25 9 1.6 3.2 0.00 2.69 0.00 89 1010.2
20260901134506 25 9 0.0 3.2 0.00 2.69 0.00 89 1010.2
20260901134011 25 9 0.0 1.6 0.00 2.69 0.00 89 1010.1
20260901133511 25 9 0.0 4.8 0.00 2.69 0.00 89 1010.0
20260901133023 25 9 1.6 4.8 0.00 2.69 0.00 89 1010.1
20260901132515 25 11 1.6 6.4 0.00 2.69 0.00 89 1010.1
20260901132020 25 12 1.6 6.4 0.00 2.69 0.00 89 1010.1
20260901131517 25 53 1.6 4.8 0.00 2.69 0.00 90 1010.1
20260901131027 25 348 0.0 4.8 0.00 2.69 0.00 90 1010.0
20260901130523 25 348 3.2 4.8 0.00 2.69 0.00 90 1010.0
20260901130023 25 355 1.6 4.8 0.00 2.69 0.00 90 1010.0
20260901125523 25 355 1.6 3.2 0.00 2.69 0.00 90 1010.0
20260901125007 25 355 0.0 0.0 0.00 2.69 0.00 90 1009.9
20260901124507 25 355 0.0 0.0 0.00 2.69 0.00 90 1010.0
20260901124015 25 355 0.0 4.8 0.00 2.69 0.00 90 1010.0
20260901123516 25 355 0.0 4.8 0.00 2.69 0.00 90 1010.0
20260901123017 25 355 1.6 4.8 0.00 2.69 0.00 90 1010.1
20260901122517 25 355 1.6 4.8 0.00 2.69 0.00 90 1010.0
20260901122019 25 355 0.0 4.8 0.00 2.69 0.00 90 1010.1
20260901121520 25 355 1.6 4.8 0.00 2.69 0.00 90 1010.0
20260901121008 25 355 0.0 3.2 0.00 2.69 0.00 90 1009.9
20260901120509 25 355 0.0 4.8 0.00 2.69 0.00 90 1009.8
20260901120016 25 355 1.6 4.8 0.00 2.69 0.00 90 1009.8
20260901115518 25 348 3.2 4.8 0.00 2.77 0.00 90 1009.8
20260901115016 25 347 1.6 4.8 0.00 2.77 0.00 90 1009.8
20260901114515 25 346 0.0 3.2 0.00 2.77 0.00 90 1009.9
20260901114026 25 346 1.6 6.4 0.00 2.77 0.00 90 1009.9
20260901113522 25 355 3.2 6.4 0.00 2.77 0.00 90 1009.8
20260901113007 25 360 1.6 4.8 0.00 2.77 0.00 90 1009.8
20260901112507 25 5 1.6 4.8 0.00 2.77 0.00 90 1009.8
20260901112011 25 5 0.0 3.2 0.00 2.77 0.00 90 1009.7
20260901111511 25 5 0.0 3.2 0.00 2.77 0.00 90 1009.7
20260901111024 25 5 0.0 0.0 0.00 2.77 0.00 90 1009.6
20260901110519 25 5 0.0 0.0 0.00 2.77 0.00 90 1009.6
20260901110007 25 5 0.0 0.0 0.00 2.77 0.00 90 1009.7
20260901105504 25 5 0.0 1.6 0.00 2.84 0.00 90 1009.7
20260901105012 25 5 0.0 3.2 0.00 2.84 0.00 90 1009.7
20260901104509 25 5 0.0 4.8 0.00 2.84 0.00 90 1009.7
20260901104014 25 5 0.0 4.8 0.00 2.84 0.00 90 1009.8
20260901103514 25 5 0.0 3.2 0.00 2.84 0.00 90 1009.8
20260901103022 25 5 0.0 4.8 0.00 2.84 0.00 90 1009.9
20260901102526 25 5 1.6 4.8 0.00 2.84 0.00 90 1009.9
20260901102007 25 5 1.6 4.8 0.00 2.84 0.00 90 1010.0
20260901101506 25 5 1.6 3.2 0.00 2.84 0.00 90 1010.0
20260901101018 25 5 0.0 3.2 0.00 2.84 0.00 90 1010.0
20260901100511 25 5 0.0 0.0 0.00 2.84 0.00 90 1010.1
20260901100021 25 5 0.0 4.8 0.00 2.84 0.00 90 1010.2
20260901095520 25 5 0.0 4.8 0.00 2.97 0.00 90 1010.2
20260901095028 25 5 3.2 4.8 0.00 2.97 0.00 91 1010.2
20260901094527 25 13 0.0 1.6 0.00 2.97 0.00 91 1010.3
20260901094008 25 13 0.0 1.6 0.00 2.97 0.00 91 1010.3
20260901093507 25 13 0.0 1.6 0.00 2.97 0.00 91 1010.4
20260901093018 25 13 0.0 4.8 0.00 2.97 0.00 90 1010.4
20260901092517 25 13 1.6 4.8 0.00 2.97 0.00 91 1010.4
20260901092020 25 9 0.0 1.6 0.00 2.97 0.00 91 1010.4
20260901091524 25 5 0.0 3.2 0.00 2.97 0.00 91 1010.6
20260901091023 25 5 0.0 8.0 0.00 2.97 0.00 91 1010.6
20260901090523 25 5 3.2 8.0 0.00 2.97 0.00 91 1010.6
20260901090014 25 355 4.8 8.0 0.00 2.97 0.00 91 1010.7
20260901085517 25 64 0.0 3.2 0.00 2.97 0.00 91 1010.7
20260901085017 25 64 0.0 4.8 0.00 2.97 0.00 91 1010.6
20260901084516 25 67 0.0 4.8 0.00 2.97 0.00 91 1010.7
20260901084019 25 67 1.6 4.8 0.00 2.97 0.00 91 1010.6
20260901083518 25 35 0.0 4.8 0.00 2.97 0.00 91 1010.7
20260901083025 25 36 0.0 4.8 0.00 2.97 0.00 91 1010.9
20260901082524 25 49 3.2 4.8 0.00 2.97 0.00 91 1011.0
20260901082008 25 41 1.6 4.8 0.00 2.97 0.00 91 1011.1
20260901081509 25 5 0.0 4.8 0.00 2.97 0.00 91 1011.2
20260901081011 25 5 0.0 4.8 0.00 2.97 0.00 91 1011.2
20260901080510 25 5 1.6 4.8 0.00 2.97 0.00 91 1011.3
20260901080017 25 360 0.0 4.8 0.00 2.97 0.00 91 1011.4
20260901075517 25 360 0.0 4.8 0.00 2.97 0.00 91 1011.5
20260901075023 25 360 1.6 4.8 0.00 2.97 0.00 91 1011.4
20260901074522 25 5 0.0 6.4 0.00 2.97 0.00 91 1011.3
20260901074004 25 38 1.6 6.4 0.00 2.97 0.00 91 1011.3
20260901073504 25 18 3.2 6.4 0.00 2.97 0.00 91 1011.2
20260901073018 25 350 1.6 6.4 0.00 2.97 0.00 91 1011.2
20260901072510 25 348 3.2 6.4 0.00 2.97 0.00 91 1011.2
20260901072017 25 331 0.0 3.2 0.00 2.97 0.00 91 1011.3
20260901071517 25 331 0.0 3.2 0.00 2.97 0.00 91 1011.2
20260901071024 25 331 0.0 1.6 0.00 2.97 0.00 91 1011.2
20260901070521 25 331 0.0 4.8 0.00 2.97 0.00 91 1011.2
20260901070007 25 331 0.0 6.4 0.00 2.97 0.00 91 1011.1
20260901065507 25 355 1.6 6.4 0.00 3.00 0.00 91 1011.0
20260901065013 25 17 1.6 8.0 0.00 3.00 0.00 91 1011.0
20260901064513 25 355 3.2 6.4 0.00 3.00 0.00 91 1011.0
20260901064017 25 342 3.2 6.4 0.00 3.00 0.00 91 1011.0
20260901063516 25 345 1.6 6.4 0.00 3.00 0.00 91 1010.9
20260901063020 25 335 1.6 6.4 0.00 3.00 0.00 91 1010.9
20260901062520 25 341 3.2 6.4 0.00 3.00 0.00 90 1011.0
20260901062008 25 327 3.2 8.0 0.00 3.00 0.00 91 1011.0
20260901061507 25 342 3.2 8.0 0.00 3.00 0.00 91 1011.0
20260901061012 25 355 1.6 6.4 0.00 3.00 0.00 90 1011.0
20260901060514 25 340 3.2 6.4 0.00 3.00 0.00 90 1011.0
20260901060016 25 339 1.6 8.0 0.00 3.00 0.00 90 1011.0
20260901055516 25 360 3.2 8.0 0.00 3.00 3.00 90 1011.1
20260901055024 25 355 3.2 6.4 0.00 3.00 3.00 90 1011.2
20260901054524 25 44 1.6 8.0 0.00 3.00 3.00 90 1011.2
20260901054004 25 323 4.8 8.0 0.00 3.00 3.00 90 1011.3
20260901053506 25 350 1.6 6.4 0.00 3.00 3.00 90 1011.3
20260901053014 25 348 3.2 6.4 0.00 3.00 3.00 90 1011.3
20260901052509 25 71 0.0 4.8 0.00 3.00 3.00 90 1011.4
20260901052019 25 71 1.6 3.2 0.00 3.00 3.00 90 1011.5
20260901051517 25 71 1.6 3.2 0.00 3.00 3.00 90 1011.6
20260901051022 25 71 0.0 8.0 0.03 3.00 3.00 90 1011.6
20260901050520 25 71 1.6 8.0 0.03 3.00 3.00 89 1011.8
20260901050021 25 39 3.2 9.7 0.03 3.00 3.00 89 1011.9
20260901045520 25 22 1.6 8.0 0.05 3.00 3.00 90 1011.9
20260901045017 25 29 1.6 6.4 0.18 3.00 3.00 90 1011.8
20260901044517 25 64 1.6 4.8 0.36 3.00 3.00 90 1011.9
20260901044024 25 64 1.6 4.8 0.71 3.00 3.00 89 1011.9
20260901043523 25 69 0.0 4.8 1.60 3.00 3.00 89 1012.0
20260901043008 25 69 1.6 6.4 2.29 3.00 3.00 89 1011.9
20260901042507 25 59 3.2 6.4 2.69 3.00 3.00 88 1011.8
20260901042011 25 63 1.6 11.3 2.69 3.00 3.00 88 1011.7
20260901041511 25 50 1.6 11.3 2.69 3.00 3.00 87 1011.5
20260901041020 25 78 3.2 12.9 2.67 2.97 2.97 87 1011.6
20260901040519 25 59 4.8 14.5 2.67 2.97 2.97 86 1011.8
20260901040028 25 118 6.4 14.5 2.64 2.97 2.97 86 1011.8
20260901035526 25 97 4.8 11.3 2.62 2.92 2.92 84 1011.7
20260901035007 26 40 3.2 8.0 2.49 2.79 2.79 83 1011.6
20260901034511 26 22 3.2 14.5 2.29 2.59 2.59 81 1011.9
20260901034018 27 91 3.2 25.7 1.83 2.16 2.16 80 1012.2
20260901033516 27 159 11.3 32.2 0.97 1.27 1.27 77 1012.5
20260901033035 28 164 16.1 40.2 0.23 0.56 0.56 75 1011.9
20260901032518 30 169 14.5 40.2 0.00 0.33 0.33 72 1010.9
20260901032022 31 219 6.4 9.7 0.00 0.33 0.33 77 1010.8
20260901031526 31 228 4.8 9.7 0.00 0.33 0.33 77 1010.6
20260901031014 31 197 6.4 9.7 0.00 0.33 0.33 77 1010.5
20260901030518 31 189 1.6 8.0 0.00 0.33 0.33 77 1010.5
20260901030016 31 165 1.6 8.0 0.00 0.33 0.33 78 1010.5
20260901025516 31 163 3.2 8.0 0.00 0.33 0.33 77 1010.4
20260901025017 31 187 3.2 8.0 0.00 0.33 0.33 77 1010.3
20260901024519 31 174 0.0 9.7 0.00 0.33 0.33 76 1010.1
20260901024022 31 204 4.8 9.7 0.00 0.33 0.33 76 1010.1
20260901023519 31 217 1.6 11.3 0.00 0.33 0.33 75 1010.1
20260901023008 31 193 3.2 8.0 0.00 0.33 0.33 75 1010.0
20260901022505 31 200 1.6 6.4 0.00 0.33 0.33 75 1009.8